FW5892 Weather Reports


time (UTC)temp
C
wind
direction
speed
KPH
gust
KPH
rain 1hr
cm
rain 24hr
cm
rain mn
cm
humidity
%
barometer
mb
20260506092504 3 128 0.0 3.2 0.00 0.00 0.00 83 1025.7
20260506092005 3 126 1.6 3.2 0.00 0.00 0.00 83 1025.6
20260506091507 3 126 0.0 4.8 0.00 0.00 0.00 84 1025.7
20260506091003 3 126 3.2 4.8 0.00 0.00 0.00 85 1025.7
20260506090503 3 185 0.0 4.8 0.00 0.00 0.00 83 1025.6
20260506090003 3 145 1.6 4.8 0.00 0.00 0.00 84 1025.6
20260506085502 3 233 0.0 3.2 0.00 0.00 0.00 83 1025.6
20260506085001 3 157 0.0 3.2 0.00 0.00 0.00 84 1025.6
20260506084501 3 157 0.0 3.2 0.00 0.00 0.00 83 1025.7
20260506084001 3 157 0.0 3.2 0.00 0.00 0.00 83 1025.6
20260506083501 2 157 0.0 1.6 0.00 0.00 0.00 84 1025.6
20260506083000 2 157 0.0 3.2 0.00 0.00 0.00 83 1025.6
20260506082604 2 157 0.0 3.2 0.00 0.00 0.00 83 1025.5
20260506082059 2 270 0.0 1.6 0.00 0.00 0.00 84 1025.6
20260506081559 2 270 0.0 3.2 0.00 0.00 0.00 85 1025.7
20260506062023 3 270 0.0 3.2 0.00 0.00 0.00 81 1025.0
20260506061530 4 270 0.0 3.2 0.00 0.00 0.00 82 1025.0
20260506061022 4 270 0.0 3.2 0.00 0.00 0.00 81 1024.9
20260506060522 4 270 0.0 3.2 0.00 0.00 0.00 81 1025.0
20260506051017 5 114 0.0 1.6 0.00 0.05 0.00 83 1024.5
20260506050521 5 114 0.0 3.2 0.00 0.05 0.00 82 1024.5
20260506045015 5 114 0.0 1.6 0.00 0.36 0.00 83 1024.3
20260506044515 5 114 0.0 1.6 0.00 0.36 0.00 83 1024.2
20260506044018 5 114 0.0 1.6 0.00 0.36 0.00 83 1024.2
20260506043514 5 114 0.0 1.6 0.00 0.36 0.00 83 1024.1
20260506043014 5 114 0.0 3.2 0.00 0.36 0.00 83 1024.2
20260506042514 5 114 0.0 3.2 0.00 0.36 0.00 83 1024.1
20260506042018 5 114 0.0 3.2 0.00 0.36 0.00 83 1024.0
20260506041517 5 114 0.0 1.6 0.00 0.36 0.00 83 1024.0
20260506041013 5 114 0.0 3.2 0.00 0.36 0.00 83 1024.1
20260506040513 5 114 0.0 3.2 0.00 0.36 0.00 83 1024.1
20260506040036 5 114 0.0 6.4 0.00 0.64 0.00 83 1023.9
20260506035513 6 114 1.6 6.4 0.00 0.64 0.00 84 1024.0
20260506035013 6 19 0.0 4.8 0.00 0.64 0.00 83 1023.9
20260506034512 6 19 0.0 3.2 0.00 0.64 0.00 83 1023.8
20260506034011 6 19 0.0 4.8 0.00 0.64 0.00 84 1023.6
20260506033511 6 19 1.6 4.8 0.00 0.64 0.00 85 1023.5
20260506033011 6 19 1.6 3.2 0.00 0.64 0.00 84 1023.8
20260506032510 6 19 0.0 1.6 0.00 0.64 0.00 84 1023.6
20260506032011 6 19 0.0 1.6 0.00 0.64 0.00 85 1023.6
20260506031524 6 19 0.0 0.0 0.00 0.64 0.00 84 1023.5
20260506031013 6 19 0.0 4.8 0.00 0.64 0.00 84 1023.4
20260506030511 6 19 0.0 4.8 0.00 0.64 0.00 84 1023.3
20260506030012 6 331 0.0 4.8 0.00 1.12 0.00 85 1023.3
20260506025510 6 331 1.6 6.4 0.00 1.12 0.00 85 1023.3
20260506025011 6 331 3.2 6.4 0.00 1.12 0.00 86 1023.2
20260506024517 7 5 0.0 4.8 0.00 1.12 0.00 86 1023.2
20260506024009 7 5 3.2 8.0 0.00 1.12 0.00 87 1023.1
20260506023509 7 355 3.2 8.0 0.00 1.12 0.00 87 1023.1
20260506023010 8 360 1.6 8.0 0.00 1.12 0.00 87 1023.1
20260506022509 8 30 1.6 4.8 0.00 1.12 0.00 86 1023.1
20260506022008 8 355 3.2 4.8 0.00 1.12 0.00 85 1022.9
20260506021510 8 5 0.0 4.8 0.00 1.12 0.00 85 1022.9
20260506021009 9 5 1.6 4.8 0.00 1.12 0.00 84 1022.9
20260506020511 9 28 1.6 6.4 0.00 1.12 0.00 85 1022.8
20260506020009 9 5 3.2 6.4 0.00 1.35 0.00 85 1022.8
20260506015508 8 62 1.6 8.0 0.00 1.35 0.00 85 1022.9
20260506015008 9 88 3.2 8.0 0.00 1.35 0.00 84 1022.9
20260506014511 9 23 1.6 8.0 0.00 1.35 0.00 84 1022.7
20260506014007 8 88 1.6 8.0 0.00 1.35 0.00 85 1022.7
20260506013509 8 95 1.6 6.4 0.00 1.35 0.00 85 1022.7
20260506013007 9 61 3.2 9.7 0.00 1.35 0.00 84 1022.7
20260506012508 10 69 4.8 12.9 0.00 1.35 0.00 81 1022.8
20260506012006 10 62 3.2 12.9 0.00 1.35 0.00 79 1022.9
20260506011507 10 105 3.2 9.7 0.00 1.35 0.00 79 1022.7
20260506011006 10 5 3.2 8.0 0.00 1.35 0.00 82 1022.6
20260506010506 10 26 3.2 6.4 0.00 1.35 0.00 83 1022.7
20260506010012 9 303 0.0 6.4 0.00 1.37 0.00 85 1022.8
20260506005506 8 303 1.6 8.0 0.00 1.37 0.00 86 1022.9
20260506005009 8 265 1.6 8.0 0.00 1.37 0.00 86 1022.8
20260506004511 8 294 4.8 9.7 0.00 1.37 0.00 85 1022.8
20260506004009 8 12 4.8 14.5 0.00 1.37 0.00 84 1022.9
20260506003507 10 344 4.8 14.5 0.00 1.37 0.00 83 1022.7
20260506003008 10 355 6.4 14.5 0.00 1.37 0.00 80 1022.7
20260506002504 10 15 3.2 8.0 0.00 1.37 0.00 80 1022.6
20260506002004 10 5 3.2 8.0 0.00 1.37 0.00 79 1022.6
20260506001504 10 22 1.6 8.0 0.00 1.37 0.00 80 1022.5
20260506001004 10 46 1.6 9.7 0.00 1.37 0.00 82 1022.7
20260506000502 9 19 4.8 9.7 0.00 1.37 0.00 82 1022.6
20260506000003 9 5 3.2 8.0 0.00 1.42 0.00 81 1022.7
20260505235502 10 342 4.8 12.9 0.00 1.42 0.00 77 1022.8
20260505235002 11 63 1.6 14.5 0.00 1.42 0.00 76 1022.8
20260505234502 12 14 1.6 14.5 0.00 1.42 0.00 73 1022.8
20260505234002 12 54 1.6 8.0 0.00 1.42 0.00 71 1022.7
20260505233501 12 10 1.6 9.7 0.00 1.42 0.00 68 1022.6
20260505233001 13 61 4.8 9.7 0.00 1.42 0.00 66 1022.6
20260505232504 13 11 0.0 8.0 0.00 1.42 0.00 66 1022.7
20260505232101 13 14 3.2 8.0 0.00 1.42 0.00 65 1022.7
20260505231606 14 98 3.2 9.7 0.00 1.42 0.00 62 1022.8
20260505231103 14 279 4.8 9.7 0.00 1.42 0.00 50 1022.8
20260505230558 13 22 0.0 16.1 0.00 1.42 0.00 54 1022.8
20260505230059 13 289 1.6 16.1 0.00 1.45 0.00 52 1022.8
20260505225557 13 130 3.2 14.5 0.00 1.45 0.00 52 1022.9
20260505225057 13 60 4.8 11.3 0.00 1.45 0.00 51 1022.9
20260505224556 12 102 4.8 11.3 0.00 1.45 0.00 52 1022.9
20260505224055 12 161 3.2 22.5 0.00 1.45 0.00 52 1022.8
20260505223556 12 177 8.0 22.5 0.00 1.45 0.00 51 1023.0
20260505223058 13 241 1.6 14.5 0.00 1.45 0.00 53 1023.0
20260505222555 13 102 1.6 9.7 0.00 1.45 0.00 57 1023.0
20260505222055 13 78 0.0 17.7 0.00 1.45 0.00 60 1023.1
20260505221557 12 120 9.7 17.7 0.00 1.45 0.00 57 1023.2
20260505221054 12 349 3.2 14.5 0.00 1.45 0.00 54 1023.2
20260505220557 13 331 3.2 24.1 0.00 1.45 0.00 53 1023.3
20260505220053 13 101 1.6 16.1 0.00 1.57 0.00 55 1023.3
20260505215552 13 355 6.4 16.1 0.00 1.57 0.00 53 1023.2
20260505215052 12 90 3.2 14.5 0.00 1.57 0.00 58 1023.2
20260505214555 12 97 1.6 14.5 0.00 1.57 0.00 60 1023.4
20260505214051 12 114 3.2 12.9 0.00 1.57 0.00 63 1023.3
20260505213550 13 149 8.0 14.5 0.00 1.57 0.00 59 1023.3
20260505213051 12 56 1.6 17.7 0.00 1.57 0.00 61 1023.3
20260505212549 12 232 1.6 17.7 0.00 1.57 0.00 64 1023.3
20260505212048 12 327 3.2 9.7 0.00 1.57 0.00 62 1023.4
20260505211547 12 64 3.2 11.3 0.00 1.57 0.00 63 1023.5
20260505211051 12 77 1.6 12.9 0.00 1.57 0.00 67 1023.3
20260505210544 11 93 6.4 17.7 0.00 1.57 0.00 64 1023.4
20260505210044 11 61 6.4 17.7 0.00 1.63 0.00 65 1023.4
20260505205544 11 17 4.8 14.5 0.00 1.63 0.00 66 1023.4
20260505205044 11 92 4.8 12.9 0.00 1.63 0.00 65 1023.4
20260505204547 11 329 3.2 9.7 0.00 1.63 0.00 68 1023.4
20260505204042 11 259 3.2 12.9 0.00 1.63 0.00 74 1023.5
20260505203546 11 269 3.2 14.5 0.00 1.63 0.00 73 1023.4
20260505203047 11 315 3.2 14.5 0.00 1.63 0.00 70 1023.3
20260505202544 11 119 6.4 11.3 0.00 1.63 0.00 69 1023.3
20260505202045 11 360 1.6 14.5 0.00 1.63 0.00 74 1023.5
20260505201540 11 130 3.2 14.5 0.00 1.63 0.00 72 1023.5
20260505201040 11 86 3.2 9.7 0.00 1.63 0.00 75 1023.6
20260505200540 11 144 4.8 9.7 0.00 1.63 0.00 71 1023.6
20260505200046 11 5 1.6 9.7 0.00 1.63 0.00 75 1023.7
20260505195538 11 270 1.6 11.3 0.00 1.63 0.00 76 1023.8
20260505195036 10 88 3.2 11.3 0.00 1.63 0.00 75 1023.7
20260505194538 10 111 3.2 8.0 0.00 1.63 0.00 75 1023.8
20260505194035 10 27 1.6 9.7 0.00 1.63 0.00 79 1023.8
20260505193536 10 71 6.4 17.7 0.00 1.63 0.00 76 1023.9
20260505193033 10 126 8.0 17.7 0.00 1.63 0.00 78 1023.8
20260505192533 9 33 1.6 14.5 0.00 1.63 0.00 83 1023.9
20260505192032 8 18 6.4 14.5 0.00 1.63 0.00 81 1023.8
20260505191531 9 166 4.8 14.5 0.00 1.63 0.00 82 1023.9
20260505191035 8 96 4.8 12.9 0.00 1.63 0.00 81 1023.6
20260505190529 8 360 4.8 16.1 0.00 1.63 0.00 84 1023.6
20260505190036 8 169 1.6 9.7 0.00 1.80 0.00 83 1023.6
20260505185529 8 64 3.2 9.7 0.00 1.80 0.00 82 1023.6
20260505185028 8 113 4.8 11.3 0.00 1.80 0.00 81 1023.5
20260505184528 8 59 1.6 6.4 0.00 1.80 0.00 83 1023.6
20260505184028 8 59 1.6 6.4 0.00 1.80 0.00 84 1023.6
20260505183525 8 17 1.6 8.0 0.00 1.80 0.00 85 1023.5
20260505183026 8 5 1.6 12.9 0.00 1.80 0.00 84 1023.5
20260505182526 8 293 4.8 12.9 0.00 1.80 0.00 81 1023.5
20260505182025 8 21 3.2 6.4 0.00 1.80 0.00 83 1023.5
20260505181528 8 37 1.6 6.4 0.00 1.80 0.00 83 1023.5
20260505181024 8 360 3.2 8.0 0.00 1.80 0.00 84 1023.5
20260505180523 8 141 3.2 8.0 0.00 1.80 0.00 81 1023.6
20260505180025 8 62 1.6 9.7 0.00 1.85 0.00 80 1023.5
20260505175522 8 31 3.2 9.7 0.00 1.85 0.00 83 1023.4
20260505175020 8 61 3.2 9.7 0.00 1.85 0.00 81 1023.3
20260505174519 8 17 1.6 6.4 0.00 1.85 0.00 86 1023.4
20260505174021 7 24 1.6 6.4 0.00 1.85 0.00 87 1023.4
20260505173517 6 355 1.6 6.4 0.00 1.85 0.00 88 1023.4
20260505173017 6 5 1.6 6.4 0.00 1.85 0.00 88 1023.4
20260505172513 6 40 1.6 4.8 0.00 1.85 0.00 88 1023.3
20260505172016 6 5 1.6 4.8 0.00 1.85 0.00 88 1023.3
20260505171521 6 63 3.2 12.9 0.00 1.85 0.00 88 1023.3
20260505171013 6 87 3.2 12.9 0.00 1.85 0.00 87 1023.3
20260505170511 6 69 1.6 4.8 0.00 1.85 0.00 87 1023.2
20260505170015 6 65 0.0 4.8 0.00 1.85 0.00 88 1023.2
20260505165511 6 66 1.6 4.8 0.00 1.85 0.00 86 1023.2
20260505165011 6 66 0.0 4.8 0.00 1.85 0.00 88 1023.1
20260505164508 6 68 0.0 4.8 0.00 1.85 0.00 88 1023.1
20260505164006 5 90 0.0 1.6 0.00 1.85 0.00 89 1023.1
20260505163505 5 90 0.0 3.2 0.00 1.85 0.00 89 1023.1
20260505163009 5 90 1.6 3.2 0.00 1.85 0.00 89 1023.1
20260505162502 5 126 0.0 3.2 0.00 1.85 0.00 89 1023.1
20260505162002 4 126 0.0 3.2 0.00 1.85 0.00 88 1023.1
20260505161502 3 126 0.0 1.6 0.00 1.85 0.00 87 1023.0
20260505161059 3 126 0.0 1.6 0.00 1.85 0.00 86 1022.9
20260505160558 3 126 0.0 3.2 0.00 1.85 0.00 85 1023.0
20260505153051 2 132 0.0 3.2 0.00 1.85 0.00 85 1022.7
20260505152547 1 132 0.0 4.8 0.00 1.85 0.00 86 1022.7
20260505152047 1 110 0.0 4.8 0.00 1.85 0.00 86 1022.6
20260505151548 1 110 0.0 3.2 0.00 1.85 0.00 86 1022.5
20260505151046 1 110 0.0 3.2 0.00 1.85 0.00 86 1022.5
20260505150547 1 123 0.0 1.6 0.00 1.85 0.00 86 1022.4
20260505140536 1 123 0.0 0.0 0.00 1.85 0.00 85 1021.8
20260505125032 0 123 0.0 0.0 0.00 1.85 0.00 87 1021.5
20260505124537 0 123 0.0 0.0 0.00 1.85 0.00 87 1021.4
20260505124031 1 123 0.0 0.0 0.00 1.85 0.00 87 1021.4
20260505123534 1 123 0.0 0.0 0.00 1.85 0.00 87 1021.4
20260505123030 1 123 0.0 0.0 0.00 1.85 0.00 87 1021.4
20260505122530 1 123 0.0 0.0 0.00 1.85 0.00 86 1021.4
20260505122031 1 123 0.0 0.0 0.00 1.85 0.00 86 1021.4
20260505121531 0 123 0.0 0.0 0.00 1.85 0.00 86 1021.4
20260505121031 0 123 0.0 0.0 0.00 1.85 0.00 86 1021.4
20260505120531 0 123 0.0 0.0 0.00 1.85 0.00 86 1021.3
20260505120030 0 123 0.0 0.0 0.00 1.85 0.00 86 1021.3
20260505115531 0 123 0.0 0.0 0.00 1.85 0.00 86 1021.3
20260505115030 0 123 0.0 0.0 0.00 1.85 0.00 86 1021.3
20260505114529 0 123 0.0 0.0 0.00 1.85 0.00 86 1021.4
20260505114029 0 123 0.0 0.0 0.00 1.85 0.00 86 1021.4
20260505113529 0 123 0.0 0.0 0.00 1.85 0.00 86 1021.4
20260505113029 0 123 0.0 0.0 0.00 1.85 0.00 86 1021.3
20260505112529 0 123 0.0 0.0 0.00 1.85 0.00 86 1021.3
20260505112032 0 123 0.0 0.0 0.00 1.85 0.00 86 1021.3
20260505111535 0 123 0.0 0.0 0.00 1.85 0.00 86 1021.3
20260505111031 0 123 0.0 0.0 0.00 1.85 0.00 87 1021.3
20260505110527 0 123 0.0 0.0 0.00 1.85 0.00 87 1021.4
20260505102026 1 123 0.0 0.0 0.00 1.85 0.00 88 1021.2
20260505101526 1 123 0.0 0.0 0.00 1.85 0.00 88 1021.1
20260505101026 1 123 0.0 0.0 0.00 1.85 0.00 88 1021.0
20260505100526 1 123 0.0 0.0 0.00 1.85 0.00 88 1021.1
20260505100030 1 123 0.0 0.0 0.00 1.85 0.00 88 1021.2
20260505095525 1 123 0.0 0.0 0.00 1.85 0.00 88 1021.3
20260505095023 1 123 0.0 0.0 0.00 1.85 0.00 87 1021.2
20260505094522 1 123 0.0 0.0 0.00 1.85 0.00 87 1021.2
20260505094022 0 123 0.0 1.6 0.00 1.85 0.00 87 1021.3
20260505093523 0 123 0.0 0.0 0.00 1.85 0.00 87 1021.4
20260505093022 0 123 0.0 0.0 0.00 1.85 0.00 87 1021.3